Location: ????
(30.1475°N, 31.1342°E)
Time: 08:01:56
(UTC+00:00)

Cosmos 1605 Rocket - Pass Details

Date: 27 September 2022
Orbit: 945 x 1004 km, 82.9° (Epoch: 28 November)

Event Time Altitude Azimuth Distance (km) Brightness Sun altitude
Exits shadow 01:24:24 77° 93° (E) 977 3.9 -31.1°
Drops below altitude 10° 01:30:28 10° 9° (N) 2,669 6.6 -29.8°
Sets 01:32:57 0° 8° (N) 3,616 7.3 -29.3°
